Asheboro, NC

2:42 PM EDT on September 29, 2016 (GMT -0400)
Asheboro Municipal

Weather History for KHBI - January, 2014

Change the Weather History Date:

Wednesday, January 22, 2014

  Actual Average Record
Temperature  
Mean Temperature 24 °F -  
Max Temperature 29 °F 47 °F 74 °F (1937)
Min Temperature 20 °F 29 °F 5 °F (1985)
Degree Days  
Heating Degree Days 40    
Moisture  
Dew Point 6 °F    
Average Humidity 47    
Maximum Humidity 81    
Minimum Humidity 25    
Precipitation  
Precipitation 0.03 in - - ()
Sea Level Pressure  
Sea Level Pressure 30.01 in    
Wind  
Wind Speed 1 mph (NW)    
Max Wind Speed 9 mph    
Max Gust Speed -    
Visibility 10 miles    
Events      
Averages and records for this station are not official NWS values.
T = Trace of Precipitation, MM = Missing Value Source: NWS Daily Summary

Daily Weather History Graph

Daily Weather History Graph

Search for Another Location

Airport or City:

Trip Planner

Search our weather history database for the weather conditions in past years. The results will help you decide how hot, cold, wet, or windy it might be!

Date:

Astronomy

Jan. 22, 2014 Rise Set
Actual Time 7:25 AM EST 5:36 PM EST
Civil Twilight 6:58 AM EST 6:04 PM EST
Nautical Twilight 6:27 AM EST 6:35 PM EST
Astronomical Twilight 5:57 AM EST 7:05 PM EST
Moon 11:52 PM EST (1/22) 10:39 AM EST (1/22)
Length of Visible Light 11h 05m
Length of Day
10h 10m
Waning Gibbous, 65% of the Moon is Illuminated
Jan 22
Waning Gibbous
Jan 24
Last Quarter
Jan 30
New
Feb 6
First Quarter
Feb 14
Full

Hourly Weather History & Observations

Time (EST) Temp. Windchill Dew Point Humidity Pressure Visibility Wind Dir Wind Speed Gust Speed Precip Events Conditions
12:15 AM 28.9 °F - 22.5 °F 77% 29.86 in 10.0 mi Calm Calm - N/A   Overcast
12:35 AM 28.2 °F - 22.5 °F 79% 29.87 in 10.0 mi Calm Calm - N/A   Mostly Cloudy
12:55 AM 27.9 °F - 22.6 °F 81% 29.87 in 10.0 mi Calm Calm - N/A   Mostly Cloudy
1:15 AM 27.3 °F - 19.4 °F 72% 29.87 in 10.0 mi Calm Calm - N/A   Scattered Clouds
1:35 AM 26.2 °F - 15.4 °F 64% 29.88 in 10.0 mi Calm Calm - N/A   Clear
1:55 AM 25.7 °F - 14.9 °F 64% 29.88 in 10.0 mi Calm Calm - N/A   Clear
2:15 AM 25.3 °F - 14.7 °F 64% 29.89 in 10.0 mi Calm Calm - N/A   Clear
2:35 AM 24.8 °F - 13.8 °F 63% 29.90 in 10.0 mi Calm Calm - N/A   Clear
2:55 AM 24.4 °F - 13.1 °F 62% 29.92 in 10.0 mi Calm Calm - N/A   Clear
3:15 AM 24.1 °F - 12.9 °F 62% 29.92 in 10.0 mi Calm Calm - N/A   Clear
3:35 AM 23.9 °F - 12.7 °F 62% 29.94 in 10.0 mi Calm Calm - N/A   Clear
3:55 AM 23.9 °F - 12.2 °F 61% 29.94 in 10.0 mi Calm Calm - N/A   Clear
4:15 AM 23.5 °F - 12.4 °F 62% 29.94 in 10.0 mi Calm Calm - N/A   Clear
4:35 AM 23.2 °F - 12.2 °F 63% 29.95 in 10.0 mi Calm Calm - N/A   Clear
4:55 AM 23.0 °F - 12.2 °F 63% 29.95 in 10.0 mi Calm Calm - N/A   Clear
5:15 AM 22.8 °F - 12.2 °F 64% 29.95 in 10.0 mi Calm Calm - N/A   Clear
5:35 AM 22.1 °F - 12.2 °F 66% 29.96 in 10.0 mi Calm Calm - N/A   Clear
5:55 AM 22.1 °F - 10.9 °F 62% 29.96 in 10.0 mi Calm Calm - N/A   Clear
6:15 AM 22.1 °F - 9.5 °F 58% 29.97 in 10.0 mi Calm Calm - N/A   Clear
6:35 AM 21.6 °F - 9.5 °F 60% 29.98 in 10.0 mi Calm Calm - N/A   Clear
6:55 AM 21.2 °F - 10.0 °F 62% 29.98 in 10.0 mi Calm Calm - N/A   Clear
7:15 AM 21.0 °F - 9.7 °F 62% 30.00 in 10.0 mi Calm Calm - N/A   Clear
7:35 AM 20.8 °F - 8.6 °F 59% 30.00 in 10.0 mi Calm Calm - N/A   Clear
7:55 AM 20.3 °F - 8.4 °F 60% 30.00 in 10.0 mi Calm Calm - N/A   Clear
8:15 AM 20.5 °F - 7.9 °F 58% 30.01 in 10.0 mi Calm Calm - N/A   Clear
8:35 AM 21.0 °F - 7.2 °F 55% 30.02 in 10.0 mi Calm Calm - N/A   Clear
8:55 AM 21.6 °F - 7.0 °F 54% 30.03 in 10.0 mi Calm Calm - N/A   Clear
9:15 AM 21.9 °F - 4.5 °F 47% 30.04 in 10.0 mi Calm Calm - N/A   Scattered Clouds
9:35 AM 21.9 °F - 3.4 °F 45% 30.04 in 10.0 mi Calm Calm - N/A   Mostly Cloudy
9:55 AM 22.1 °F - 2.8 °F 43% 30.06 in 10.0 mi Calm Calm - N/A   Scattered Clouds
10:15 AM 22.6 °F 14.3 °F 2.8 °F 43% 30.06 in 10.0 mi NNW 6.9 mph - N/A   Clear
10:35 AM 23.5 °F 13.7 °F 3.0 °F 41% 30.07 in 10.0 mi NNW 9.2 mph - N/A   Clear
10:55 AM 23.7 °F 14.0 °F 0.7 °F 37% 30.07 in 10.0 mi NNW 9.2 mph - N/A   Clear
11:15 AM 24.1 °F 15.2 °F 2.5 °F 39% 30.07 in 10.0 mi WNW 8.1 mph - N/A   Clear
11:35 AM 24.8 °F 16.1 °F 2.7 °F 39% 30.06 in 10.0 mi NNW 8.1 mph - N/A   Clear
11:55 AM 25.5 °F 16.9 °F 2.1 °F 37% 30.06 in 10.0 mi NW 8.1 mph - N/A   Clear
12:15 PM 26.2 °F 17.8 °F 1.2 °F 34% 30.04 in 10.0 mi North 8.1 mph - N/A   Clear
12:35 PM 26.1 °F - 0.9 °F 34% 30.04 in 10.0 mi Calm Calm - N/A   Clear
12:55 PM 26.6 °F 19.1 °F 1.2 °F 34% 30.03 in 10.0 mi NNW 6.9 mph - N/A   Clear
1:15 PM 27.5 °F 21.1 °F 1.9 °F 33% 30.02 in 10.0 mi NNW 5.8 mph - N/A   Clear
1:35 PM 27.1 °F 23.2 °F 1.2 °F 33% 30.01 in 10.0 mi North 3.5 mph - N/A   Clear
1:55 PM 27.0 °F 21.6 °F -0.2 °F 31% 30.00 in 10.0 mi West 4.6 mph - N/A   Clear
2:15 PM 27.5 °F - -0.2 °F 30% 30.00 in 10.0 mi Calm Calm - N/A   Clear
2:35 PM 28.9 °F 23.9 °F 1.0 °F 30% 30.01 in 10.0 mi West 4.6 mph - N/A   Clear
2:55 PM 28.8 °F 23.7 °F -0.6 °F 28% 30.01 in 10.0 mi NNW 4.6 mph - N/A   Clear
3:15 PM 29.1 °F 24.1 °F -1.3 °F 27% 30.01 in 10.0 mi West 4.6 mph - N/A   Clear
3:35 PM 29.1 °F 23.0 °F -2.2 °F 26% 30.01 in 10.0 mi West 5.8 mph - N/A   Clear
3:55 PM 29.3 °F 24.3 °F -1.8 °F 26% 30.01 in 10.0 mi West 4.6 mph - N/A   Clear
4:15 PM 29.3 °F - -3.3 °F 25% 30.02 in 10.0 mi Calm Calm - N/A   Clear
4:35 PM 29.3 °F 25.6 °F -3.3 °F 25% 30.02 in 10.0 mi NW 3.5 mph - N/A   Clear
4:55 PM 29.3 °F - -2.9 °F 25% 30.03 in 10.0 mi Calm Calm - N/A   Clear
5:15 PM 28.9 °F 25.2 °F -3.5 °F 25% 30.04 in 10.0 mi NNW 3.5 mph - N/A   Clear
5:35 PM 28.4 °F - -3.6 °F 25% 30.04 in 10.0 mi Calm Calm - N/A   Clear
5:55 PM 26.6 °F - 3.7 °F 38% 30.04 in 10.0 mi Calm Calm - N/A   Clear
6:15 PM 26.2 °F - -0.0 °F 32% 30.05 in 10.0 mi Calm Calm - N/A   Clear
6:35 PM 25.2 °F - 1.2 °F 36% 30.05 in 10.0 mi Calm Calm - N/A   Clear
6:55 PM 24.4 °F - 2.5 °F 39% 30.05 in 10.0 mi Calm Calm - N/A   Clear
7:15 PM 24.1 °F - 5.9 °F 46% 30.05 in 10.0 mi Calm Calm - N/A   Clear
7:35 PM 23.5 °F - 3.9 °F 43% 30.06 in 10.0 mi Calm Calm - N/A   Clear
7:55 PM 22.8 °F - 3.2 °F 43% 30.06 in 10.0 mi Calm Calm - N/A   Clear
8:15 PM 22.3 °F - 5.2 °F 48% 30.06 in 10.0 mi Calm Calm - N/A   Clear
8:35 PM 22.8 °F - 5.0 °F 47% 30.07 in 10.0 mi Calm Calm - N/A   Scattered Clouds
8:55 PM 23.0 °F - 5.2 °F 47% 30.07 in 10.0 mi Calm Calm - N/A   Mostly Cloudy
9:15 PM 24.1 °F - 5.7 °F 46% 30.06 in 10.0 mi Calm Calm - N/A   Overcast
9:35 PM 25.7 °F - 0.9 °F 34% 30.06 in 10.0 mi Calm Calm - N/A   Overcast
9:55 PM 25.2 °F - 1.8 °F 37% 30.07 in 10.0 mi Calm Calm - N/A   Overcast
10:15 PM 23.4 °F - 5.4 °F 46% 30.08 in 10.0 mi Calm Calm - N/A   Overcast
10:35 PM 23.5 °F - 9.0 °F 54% 30.09 in 10.0 mi Calm Calm - N/A   Overcast
10:55 PM 22.8 °F - 7.7 °F 52% 30.09 in 10.0 mi Calm Calm - N/A   Mostly Cloudy
11:15 PM 22.5 °F - 2.8 °F 43% 30.09 in 10.0 mi Calm Calm - N/A   Mostly Cloudy
11:35 PM 21.4 °F - 6.8 °F 53% 30.09 in 10.0 mi Calm Calm - N/A   Mostly Cloudy
11:55 PM 21.2 °F - 7.0 °F 54% 30.09 in 10.0 mi Calm Calm - N/A   Scattered Clouds